SCP
0 0 0 0 0 0 0 0 0 -0 -0 -0 0 0 0 0 0 0 0 0 0 0 0 0 0 0 0 0 0 0 0 0 0 0 0 0 0 0 0 0 0 0 0 0
0 0 0 0 0 0 0 0 0 -0 -0 -0 0 0 0 0 0 0 0 0 0 0 0 0 0 0 0 0 0 0 0 0 0 0 0 0 0 0 0 0 0 0 0 0
0 0 0 0 0 0 0 0 0 0 0 0 0 0 0 0 0 0 0 0 0 0 0 0 0 0 0 0 0 0 0 0 0 0 0 0 0 0 0 0 0 0 0 0
0 0 0 0 0 0 0 0 0 0 0 0 0 0 0 0 0 0 0 0 0 0 0 0 0 0 0 0 0 0 0 0 0 0 0 0 0 0 0 0 0 0 0 0
0 0 0 0 0 0 0 0 0 0 0 0 0 0 0 0 0 0 0 0 0 0 0 0 0 0 0 0 0 0 0 0 0 0 0 0 0 0 0 0 0 0 0 0
0 0 0 0 0 0 0 0 0 0 0 0 0 0 0 0 -0 0 0 0 0 0 0 0 0 0 0 0 0 0 0 0 0 0 0 0 0 0 0 0 0 0 0 0
0 0 0 0 0 0 0 0 0 0 0 0 0 0 0 0 -0 0 0 0 0 0 0 0 0 0 0 0 0 0 0 0 0 0 0 0 0 0 0 0 0 0 0 0
0 0 0 0 0 0 0 0 0 0 0 0 0 0 0 0 -0 -0 0 0 0 0 0 0 0 0 0 0 0 0 0 0 0 0 0 0 0 0 0 0 0 0 0 0
0 0 0 0 0 0 0 0 0 0 0 0 0 0 0 0 0 0 0 0 0 -0 0 0 0 0 0 0 0 0 0 0 0 0 0 0 0 0 0 0 0 0 0 0
0 0 0 0 0 0 0 0 0 0 0 0 0 0 0 0 0 0 0 0 0 0 -0 0 0 0 0 0 0 0 0 0 0 0 0 0 0 0 0 0 0 0 0 0
0 0 0 0 0 0 0 0 0 0 0 0 0 0 0 0 0 0 0 0 0 0 -0 -0 -0 0 0 0 0 0 0 0 0 0 0 0 0 0 0 0 0 0 0 0
0 0 0 0 0 0 0 0 0 0 0 0 0 0 0 0 0 0 -0 -0 0 0 -0 -0 -0 -0 -0 -0 0 0 0 0 0 0 0 0 0 0 0 0 0 0 0 0
0 0 0 0 0 0 0 0 0 0 0 0 0 0 0 0 0 0 0 -0 -0 -0 -0 0 0 0 0 0 0 0 0 0 0 0 0 0 0 0 0 0 0 0 0 0
0 0 0 0 0 0 0 0 0 0 0 0 0 0 0 0 0 0 0 0 0 0 0 0 0 0 0 0 0 0 0 0 0 0 0 0 0 0 0 0 0 0 0 0
0 0 0 0 0 0 0 0 0 0 0 0 0 0 0 0 0 0 0 0 -0 -0 0 0 0 0 0 0 0 0 0 0 0 0 0 0 0 0 0 0 0 0 0 0
0 0 0 0 0 0 0 0 0 0 0 0 0 0 0 0 0 0 0 -0 -0 -0 0 0 0 0 0 0 0 0 0 0 0 0 0 0 0 0 0 0 0 0 0 0
0 0 0 0 0 0 0 0 0 0 0 0 0 0 0 0 0 0 0 0 -0 -0 0 0 0 -0 -0 0 0 0 0 0 0 0 0 0 0 0 0 0 0 0 0 0
0 0 0 0 0 0 0 0 0 0 0 0 0 0 0 0 0 0 0 0 0 0 0 0 -0 -0 0 0 0 0 0 0 0 0 0 0 0 0 0 0 0 0 0 0
0 0 0 0 0 0 0 0 0 0 0 0 0 0 0 0 0 0 0 0 0 0 0 0 0 0 0 0 0 0 0 0 0 0 0 0 0 0 0 0 0 0 0 0
0 0 0 0 0 0 0 0 0 0 0 0 0 0 0 0 0 0 0 0 0 0 0 0 0 0 0 0 0 0 0 0 0 0 0 0 0 0 0 0 0 0 0 0
0 0 0 0 0 0 0 0 0 0 0 0 0 0 0 0 0 0 0 0 0 0 0 0 0 0 0 0 0 0 0 0 0 0 0 0 0 0 0 0 0 0 0 0
0 0 0 0 0 0 0 0 0 0 0 0 0 0 0 0 0 0 0 0 0 0 0 0 0 0 0 0 0 0 0 0 0 0 0 0 0 0 0 0 0 -0 0 0
0 0 0 0 0 0 0 0 0 0 0 0 0 0 0 0 0 0 0 0 0 0 0 0 0 0 0 -0 0 0 0 0 0 0 0 0 0 0 0 0 0 0 0 0
0 0 0 0 0 0 0 0 0 0 0 0 0 0 0 0 0 0 0 0 0 0 0 0 0 0 0 -0 0 0 0 0 0 0 0 0 0 0 0 0 0 0 0 0
0 0 0 0 0 0 0 0 0 0 0 0 0 0 -0 0 0 0 0 0 0 0 0 0 0 0 0 -0 0 0 0 0 0 -0 -0 -0 0 0 0 0 0 0 0 0
0 0 0 0 0 0 0 0 0 0 0 0 0 0 -0 0 0 0 0 0 0 0 0 0 0 0 0 -0 0 0 0 0 -0 -0 -0 -0 -0 0 0 0 0 0 0 0
Wind_Speed
3 4 8 10 10 6 3 4 6 5 3 3 8 10 9 6 5 7 7 7 8 10 8 5 6 6 6 7 8 9 9 9 7 5 6 6 7 6 5 6 6 7 7 7
2 8 8 4 6 6 6 6 6 3 2 3 6 11 9 8 8 8 9 9 9 8 7 6 6 5 7 8 8 9 10 9 9 8 6 4 4 4 4 4 5 6 7 7
8 5 4 5 6 7 8 9 7 4 2 2 3 8 7 7 7 7 8 8 8 9 9 7 6 6 6 7 9 8 9 9 9 9 5 3 2 2 3 4 5 6 7 7
5 3 3 5 7 8 9 6 5 4 3 3 2 8 7 5 6 7 8 8 8 7 7 6 5 5 5 6 6 6 6 7 7 7 7 9 7 7 7 5 4 4 6 7
5 2 3 6 6 6 5 3 4 4 4 4 4 7 8 3 7 8 7 6 6 6 5 5 4 4 3 3 3 3 4 4 5 6 8 8 8 6 4 3 3 4 4 5
4 2 3 4 3 4 2 1 1 1 2 8 9 8 8 5 8 5 5 4 4 3 3 3 3 2 2 1 0 1 2 3 3 5 6 7 8 7 5 5 5 4 3 3
3 2 2 1 1 1 2 3 1 2 5 8 5 7 10 5 5 6 5 3 3 2 2 2 3 2 2 2 1 0 1 1 1 3 4 5 6 6 7 6 5 4 3 3
1 3 3 3 4 4 5 6 6 5 5 4 3 8 7 4 3 2 1 1 1 2 2 3 3 2 2 2 2 2 1 0 0 1 2 3 4 4 3 4 3 3 3 4
2 4 2 2 3 6 4 5 4 2 2 3 5 5 7 3 2 2 2 3 3 3 3 3 3 3 3 3 3 2 1 1 2 1 0 1 2 2 3 3 3 2 2 2
2 3 3 2 1 1 5 5 2 4 4 6 5 4 4 2 2 4 5 5 4 4 4 4 4 3 3 3 3 4 3 2 2 2 1 1 1 2 2 2 2 2 2 2
1 1 3 1 3 4 2 3 3 3 3 4 4 5 3 2 0 2 2 2 3 4 4 4 4 4 4 4 4 4 4 4 4 3 2 1 1 1 1 1 2 2 2 2
1 1 3 5 4 3 3 4 4 4 4 4 4 7 2 1 1 2 3 4 4 4 3 3 3 4 4 4 4 4 4 3 3 3 2 1 1 1 1 1 1 1 1 1
1 2 1 4 3 1 1 2 3 3 2 4 5 8 3 3 5 5 4 6 5 5 5 4 4 4 4 3 4 4 4 4 3 3 3 2 2 1 1 2 2 1 1 1
1 2 5 6 4 2 3 4 3 4 5 6 9 10 8 7 7 8 7 6 5 4 4 4 4 4 3 3 4 4 4 4 4 3 3 3 2 2 1 2 2 2 1 1
1 2 4 5 5 5 6 8 7 8 9 8 9 9 11 8 6 6 5 5 5 5 5 5 5 5 4 4 4 4 4 4 4 3 3 3 3 2 1 1 1 1 1 1
1 2 2 5 5 6 8 10 10 10 10 10 10 13 9 6 3 3 4 4 4 5 5 5 5 5 5 5 4 4 4 4 3 3 4 4 4 3 2 2 2 1 1 1
2 2 1 5 4 3 8 10 10 8 7 8 11 10 4 4 5 4 4 4 5 5 5 6 5 5 5 5 4 4 4 4 3 3 4 4 4 3 3 2 2 2 2 1
4 3 2 2 1 7 9 2 5 7 7 6 5 5 4 5 6 4 2 3 5 6 6 6 5 5 5 4 4 4 4 3 3 3 4 4 3 3 3 2 2 3 2 1
7 6 3 3 4 9 9 4 4 5 6 4 6 5 5 4 3 3 2 2 3 5 5 5 5 5 5 4 4 4 4 3 3 4 5 4 4 4 3 3 3 3 2 2
3 5 4 3 4 8 7 2 2 1 6 3 2 3 4 3 3 5 4 4 5 5 4 4 4 4 4 4 3 3 4 4 4 5 5 5 4 4 4 4 4 3 2 2
3 4 6 6 6 10 7 2 2 3 6 2 1 2 2 3 5 6 5 5 5 5 5 4 4 4 3 3 3 4 4 5 5 5 5 5 5 5 4 4 3 2 2 2
6 5 6 5 6 11 3 3 5 6 2 2 2 3 4 6 6 5 5 6 6 6 5 4 4 4 4 3 3 4 5 5 5 5 5 5 5 4 3 3 2 2 2 2
7 7 6 9 9 5 2 5 4 2 3 4 4 4 4 6 6 6 6 6 6 6 6 4 4 4 4 4 3 5 5 5 5 5 5 5 5 4 3 3 2 2 2 2
5 3 5 7 9 7 6 5 5 4 5 5 4 5 4 6 7 7 7 6 6 6 5 4 4 5 5 4 4 4 5 5 4 5 5 5 4 4 3 2 2 2 3 3
7 4 5 9 9 7 7 7 7 6 5 5 5 5 5 6 7 7 7 6 6 5 4 4 4 5 5 5 5 5 5 4 4 5 4 4 4 3 3 3 3 3 3 3
6 7 8 11 8 7 7 4 4 5 6 6 6 6 5 5 7 7 6 5 5 5 4 4 4 5 5 4 5 5 4 4 4 4 4 3 3 3 3 3 3 4 4 4
Wind_Direction
182 191 209 208 209 226 218 217 234 237 238 218 240 254 258 262 254 251 251 247 243 245 251 250 237 230 223 217 212 212 211 210 195 189 196 202 213 213 212 214 211 207 205 201
193 227 223 208 210 226 236 241 247 269 238 221 253 263 257 245 236 234 238 241 242 249 260 253 243 233 222 220 218 217 216 209 199 199 195 194 191 199 206 202 204 206 205 203
216 234 201 197 209 221 233 225 223 241 301 273 288 280 252 251 241 241 238 241 242 238 244 251 246 234 229 226 220 219 218 212 206 198 176 162 155 174 192 205 210 211 207 206
238 248 209 212 218 205 238 220 210 220 228 255 205 271 258 240 249 246 243 242 245 246 245 250 253 248 236 235 229 221 218 211 207 193 189 190 197 208 213 207 205 202 204 209
231 207 197 218 225 202 228 205 206 216 225 254 221 254 271 221 240 245 247 248 253 251 244 248 250 245 249 246 231 219 209 211 205 195 198 198 207 216 207 186 191 201 203 209
248 236 205 214 225 205 193 69 345 200 201 241 218 219 268 219 223 226 231 244 261 277 279 278 285 291 308 342 323 211 188 209 201 194 197 198 203 206 199 200 206 211 209 210
293 266 241 195 185 202 183 152 190 230 218 240 201 212 252 239 227 213 220 241 271 294 313 321 335 342 349 3 1 9 151 198 199 182 191 198 203 203 207 210 213 213 215 220
256 269 226 202 192 189 209 192 193 206 222 260 208 228 255 265 268 253 233 246 309 339 343 341 338 346 356 359 8 29 49 24 163 167 191 193 195 200 209 212 207 213 221 225
202 266 283 226 202 165 187 217 212 206 275 270 243 267 300 308 343 7 16 24 8 2 3 357 358 7 12 9 5 12 36 29 14 27 148 181 196 203 208 209 204 210 216 217
182 270 286 284 348 219 188 175 169 191 207 238 264 249 243 283 338 5 14 12 359 357 359 358 2 3 6 7 6 13 20 16 5 16 20 334 234 223 220 209 206 207 218 209
124 245 307 310 198 200 175 188 198 193 194 206 253 261 238 221 288 350 350 348 337 337 342 348 353 358 5 13 14 12 12 12 8 6 1 351 329 303 236 211 219 224 226 214
208 170 272 264 258 222 191 197 189 205 237 223 243 262 275 168 351 353 331 332 338 343 349 350 355 2 7 7 2 1 359 360 353 352 352 344 338 348 345 289 260 240 231 227
166 145 340 331 334 12 183 214 206 197 205 222 230 258 300 347 344 343 337 334 335 342 350 358 360 357 354 354 352 349 349 348 348 353 354 350 343 342 318 303 303 288 247 228
169 182 190 214 238 255 272 271 244 214 226 237 238 259 288 311 319 321 327 329 330 336 344 343 338 336 338 339 340 341 343 345 348 349 347 340 323 311 303 309 312 303 289 261
108 231 238 253 267 262 262 262 251 237 234 237 252 259 273 279 283 297 314 325 331 335 340 335 330 329 333 336 336 337 335 338 343 341 339 330 329 328 329 324 315 316 313 290
219 235 256 274 275 271 272 264 253 250 244 243 256 266 268 274 288 304 311 316 314 314 316 319 322 324 322 321 323 326 324 328 336 336 333 337 339 340 346 336 319 304 295 291
229 183 189 266 295 326 267 245 232 230 229 225 242 256 288 310 305 297 299 301 298 300 306 309 311 310 310 310 312 312 317 326 335 334 331 331 331 328 325 326 318 293 277 268
211 195 203 248 29 240 245 237 217 231 245 231 245 270 280 276 280 277 287 306 308 312 312 309 310 312 317 321 326 326 326 329 329 326 323 322 317 311 311 311 299 294 297 277
209 197 199 193 233 270 287 270 216 220 258 232 238 268 285 297 310 285 280 308 294 294 300 301 303 308 315 319 326 321 318 324 325 318 313 310 304 298 296 291 286 283 280 273
195 198 199 194 220 246 253 262 240 170 268 262 231 270 297 338 306 288 312 314 304 301 304 311 317 320 316 318 321 309 304 310 305 304 303 303 297 286 279 275 273 272 261 258
168 200 212 216 236 258 257 261 113 184 253 285 257 258 256 248 253 277 303 304 300 302 305 310 310 306 303 316 318 306 303 300 305 309 307 307 302 292 283 279 274 268 254 251
196 196 206 194 221 252 239 149 187 225 253 274 268 260 257 262 274 285 291 294 301 305 307 310 308 308 317 328 319 303 301 312 317 313 311 308 303 296 288 275 268 254 232 233
218 205 199 202 222 246 206 210 230 226 249 259 258 265 265 273 278 282 287 292 298 302 307 309 304 306 316 326 318 297 304 318 318 313 306 304 305 302 292 275 266 256 233 231
250 226 224 251 258 259 255 256 265 257 251 259 260 267 268 270 277 282 284 289 295 298 303 312 308 300 304 317 317 303 311 319 312 303 304 306 305 304 303 286 262 245 232 229
233 218 234 255 268 277 263 249 253 261 260 266 271 267 264 268 275 275 279 284 289 296 302 302 294 291 298 312 313 318 322 317 304 297 299 301 297 293 295 289 275 267 257 239
208 208 225 251 249 242 259 252 241 249 260 264 269 278 274 260 268 276 277 283 290 294 300 300 294 292 300 308 307 318 323 312 299 295 297 297 297 296 292 292 298 284 276 271